Tracking 19562 objects as of 21-Mar-2019
HD Live streaming from Space Station
objects crossing your sky now

RADUGA 1-4

Track RADUGA 1-4 now!
RADUGA 1-4 is classified as:


NORAD ID: 25642
Int'l Code: 1999-010A
Perigee: 35,787.9 km
Apogee: 35,832.2 km
Inclination: 14.6 °
Period: 1,436.9 minutes
Semi major axis: 42181 km
RCS: 12.5893 m2 (large)
Launch date: February 28, 1999
Source: Commonwealth of Independent States (former USSR) (CIS)
Launch site: TYURATAM MISSILE AND SPACE COMPLEX (TTMTR)

Military communication.
aabbcc
Your satellite tracking list
Your tracking list is empty




NASA's NSSDC Master Catalog

Two Line Element Set (TLE):
1 25642U 99010A   19079.77590194 -.00000330 +00000-0 +00000-0 0  9993
2 25642 014.6225 024.5946 0005252 271.8541 261.9317 01.00213559073424
Source of the keplerian elements: AFSPC